This is the latest recevied weather packets stored in our database for station/object K7DC. If no packets are shown the sender has not sent any weather packets the latest 10 day(s).
| Time | Temp. | Humidity | Pressure | Rain* | Wind** | Luminosity | Snow |
|---|---|---|---|---|---|---|---|
| 1778070645 | 7.78° C | 86% | 1015.9 hPa | 0 mm | - | 2 W/m² | - |
| 1778070341 | 7.78° C | 85% | 1015.8 hPa | 0 mm | - | 1 W/m² | - |
| 1778070040 | 7.78° C | 83% | 1015.8 hPa | 0 mm | - | 0 W/m² | - |
| 1778069737 | 8.33° C | 78% | 1016 hPa | 0 mm | - | 0 W/m² | - |
| 1778069433 | 8.89° C | 80% | 1015.7 hPa | 0 mm | - | 0 W/m² | - |
| 1778069131 | 8.33° C | 79% | 1015.6 hPa | 0 mm | - | 0 W/m² | - |
| 1778068828 | 8.33° C | 82% | 1015.6 hPa | 0 mm | - | 0 W/m² | - |
| 1778068526 | 8.89° C | 79% | 1015.5 hPa | 0 mm | - | 0 W/m² | - |
| 1778066711 | 10° C | 73% | 1015.3 hPa | 0 mm | - | 0 W/m² | - |
| 1778065501 | 9.44° C | 76% | 1015.2 hPa | 0 mm | - | 0 W/m² | - |
| 1778063684 | 10° C | 75% | 1015.2 hPa | 0 mm | - | 0 W/m² | - |
| 1778063079 | 10° C | 77% | 1015.1 hPa | 0 mm | - | 0 W/m² | - |
| 1778062776 | 10° C | 76% | 1015 hPa | 0 mm | - | 0 W/m² | - |
| 1778062472 | 10° C | 77% | 1015.2 hPa | 0 mm | - | 0 W/m² | - |
| 1778061867 | 10° C | 77% | 1015.1 hPa | 0 mm | - | 0 W/m² | - |
| 1778061565 | 10° C | 78% | 1015 hPa | 0 mm | - | 0 W/m² | - |
| 1778061264 | 10° C | 73% | 1015.1 hPa | 0 mm | - | 0 W/m² | - |
| 1778060355 | 9.44° C | 82% | 1015 hPa | 0 mm | - | 0 W/m² | - |
| 1778059751 | 9.44° C | 77% | 1015 hPa | 0 mm | - | 0 W/m² | - |
| 1778059449 | 10° C | 76% | 1015.1 hPa | 0 mm | - | 0 W/m² | - |
| 1778058540 | 9.44° C | 78% | 1014.7 hPa | 0 mm | - | 0 W/m² | - |
| 1778058238 | 9.44° C | 76% | 1014.7 hPa | 0 mm | - | 0 W/m² | - |
| 1778057934 | 9.44° C | 77% | 1014.8 hPa | 0 mm | - | 0 W/m² | - |
| 1778056720 | 10° C | 73% | 1015.1 hPa | 0 mm | - | 0 W/m² | - |
| 1778056418 | 10.56° C | 72% | 1015 hPa | 0 mm | - | 0 W/m² | - |
* Rain latest hour (hover to see other rain measurements)
** Current wind speed in m/s (hover to see current wind gust speed)